• în România
  • Lista ţărilor
  • Pe 7 zile
  • Temperatura apei
  • Hartă satelitară
  • Meteo pe hartă
  • Widget-uri
  • user-avatar
    Intrare

    Meteo pe oră la Stepanakert

    Astăzi, 22 Februarie, Miercuri

    Timp Temperatura Precipitaţii Vânt Presiune Umiditate
    00:00 -1°C° 0 mm 3 m/s 690 mmHg 77%
    01:00 -1°C° 0 mm 3 m/s 690 mmHg 75%
    02:00 -1°C° 0 mm 3 m/s 690 mmHg 73%
    03:00 -2°C° 0 mm 3 m/s 690 mmHg 71%
    04:00 -2°C° 0 mm 3 m/s 690 mmHg 71%
    05:00 -2°C° 0 mm 3 m/s 690 mmHg 70%
    06:00 -2°C° 0 mm 3 m/s 690 mmHg 70%
    07:00 0°C° 0 mm 3 m/s 690 mmHg 67%
    08:00 +3°C° 0 mm 2 m/s 691 mmHg 65%
    09:00 +4°C° 0 mm 2 m/s 691 mmHg 62%
    10:00 +6°C° 0 mm 2 m/s 691 mmHg 58%
    11:00 +7°C° 0 mm 2 m/s 691 mmHg 53%
    12:00 +8°C° 0 mm 2 m/s 691 mmHg 49%
    13:00 +9°C° 0 mm 2 m/s 691 mmHg 50%
    14:00 +9°C° 0 mm 2 m/s 691 mmHg 52%
    15:00 +9°C° 0 mm 2 m/s 691 mmHg 53%
    16:00 +6°C° 0 mm 2 m/s 691 mmHg 61%
    17:00 +5°C° 0 mm 1 m/s 690 mmHg 68%
    18:00 +3°C° 0 mm 1 m/s 690 mmHg 75%
    19:00 +3°C° 0 mm 1 m/s 691 mmHg 74%
    20:00 +1°C° 0 mm 2 m/s 691 mmHg 73%
    21:00 +1°C° 0 mm 2 m/s 691 mmHg 72%
    22:00 +1°C° 0 mm 2 m/s 691 mmHg 71%
    23:00 +1°C° 0 mm 2 m/s 691 mmHg 70%

    Mâine, 23 Februarie, Joi

    Timp Temperatura Precipitaţii Vânt Presiune Umiditate
    00:00 +1°C° 0 mm 2 m/s 691 mmHg 69%
    01:00 +1°C° 0 mm 2 m/s 691 mmHg 69%
    02:00 +1°C° 0 mm 2 m/s 691 mmHg 69%
    03:00 0°C° 0 mm 3 m/s 691 mmHg 69%
    04:00 0°C° 0 mm 3 m/s 691 mmHg 69%
    05:00 0°C° 0 mm 3 m/s 691 mmHg 69%
    06:00 0°C° 0 mm 3 m/s 691 mmHg 69%
    07:00 +2°C° 0 mm 2 m/s 692 mmHg 66%
    08:00 +4°C° 0 mm 2 m/s 693 mmHg 63%
    09:00 +5°C° 0 mm 2 m/s 693 mmHg 60%
    10:00 +6°C° 0 mm 2 m/s 693 mmHg 56%
    11:00 +7°C° 0 mm 2 m/s 694 mmHg 52%
    12:00 +8°C° 0 mm 2 m/s 694 mmHg 47%
    13:00 +8°C° 0 mm 2 m/s 694 mmHg 48%
    14:00 +9°C° 0 mm 2 m/s 694 mmHg 48%
    15:00 +9°C° 0 mm 2 m/s 694 mmHg 48%
    16:00 +7°C° 0 mm 2 m/s 694 mmHg 56%
    17:00 +6°C° 0 mm 1 m/s 694 mmHg 64%
    18:00 +4°C° 0 mm 1 m/s 694 mmHg 72%
    19:00 +3°C° 0 mm 1 m/s 694 mmHg 73%
    20:00 +3°C° 0 mm 1 m/s 694 mmHg 74%
    21:00 +2°C° 0 mm 1 m/s 695 mmHg 74%
    22:00 +2°C° 0 mm 1 m/s 695 mmHg 73%
    23:00 +2°C° 0 mm 1 m/s 695 mmHg 72%

    Poimâine, 24 Februarie, Vineri

    Timp Temperatura Precipitaţii Vânt Presiune Umiditate
    00:00 +1°C° 0 mm 2 m/s 695 mmHg 71%
    01:00 +1°C° 0 mm 2 m/s 695 mmHg 70%
    02:00 +1°C° 0 mm 2 m/s 695 mmHg 69%
    03:00 +1°C° 0 mm 2 m/s 695 mmHg 69%
    04:00 +1°C° 0 mm 2 m/s 695 mmHg 68%
    05:00 +1°C° 0 mm 2 m/s 695 mmHg 68%
    06:00 -1°C° 0 mm 2 m/s 695 mmHg 67%
    07:00 +2°C° 0 mm 2 m/s 696 mmHg 62%
    08:00 +5°C° 0 mm 1 m/s 696 mmHg 57%
    09:00 +7°C° 0 mm 1 m/s 697 mmHg 52%
    10:00 +9°C° 0 mm 1 m/s 697 mmHg 50%
    11:00 +10°C° 0 mm 1 m/s 697 mmHg 47%
    12:00 +11°C° 0 mm 1 m/s 697 mmHg 45%
    13:00 +12°C° 0 mm 1 m/s 697 mmHg 46%
    14:00 +12°C° 0 mm 1 m/s 697 mmHg 48%
    15:00 +12°C° 0 mm 2 m/s 696 mmHg 49%
    16:00 +10°C° 0 mm 1 m/s 696 mmHg 57%
    17:00 +7°C° 0 mm 1 m/s 696 mmHg 64%
    18:00 +5°C° 0 mm 1 m/s 696 mmHg 71%
    19:00 +5°C° 0 mm 1 m/s 696 mmHg 71%
    20:00 +5°C° 0 mm 1 m/s 696 mmHg 70%
    21:00 +5°C° 0 mm 1 m/s 697 mmHg 70%
    22:00 +4°C° 0 mm 1 m/s 697 mmHg 70%
    23:00 +4°C° 0 mm 1 m/s 697 mmHg 70%

    25 Februarie, Sâmbătă

    Timp Temperatura Precipitaţii Vânt Presiune Umiditate
    00:00 +4°C° 0 mm 1 m/s 696 mmHg 70%
    01:00 +4°C° 0 mm 1 m/s 696 mmHg 69%
    02:00 +3°C° 0 mm 1 m/s 696 mmHg 69%
    03:00 +3°C° 0 mm 1 m/s 696 mmHg 69%
    04:00 +3°C° 0 mm 1 m/s 696 mmHg 69%
    05:00 +3°C° 0 mm 1 m/s 696 mmHg 68%
    06:00 +3°C° 0 mm 1 m/s 696 mmHg 68%
    07:00 +5°C° 0 mm 1 m/s 696 mmHg 62%
    08:00 +7°C° 0 mm 1 m/s 697 mmHg 55%
    09:00 +9°C° 0 mm 1 m/s 697 mmHg 49%
    10:00 +11°C° 0 mm 1 m/s 697 mmHg 47%
    11:00 +12°C° 0 mm 1 m/s 697 mmHg 44%
    12:00 +13°C° 0 mm 1 m/s 696 mmHg 41%
    13:00 +13°C° 0 mm 1 m/s 696 mmHg 43%
    14:00 +13°C° 0 mm 1 m/s 695 mmHg 44%
    15:00 +14°C° 0 mm 1 m/s 695 mmHg 45%
    16:00 +11°C° 0 mm 1 m/s 694 mmHg 53%
    17:00 +9°C° 0 mm 1 m/s 694 mmHg 60%
    18:00 +7°C° 0 mm 1 m/s 694 mmHg 67%
    19:00 +6°C° 0 mm 1 m/s 694 mmHg 65%
    20:00 +5°C° 0 mm 2 m/s 694 mmHg 63%
    21:00 +5°C° 0 mm 2 m/s 694 mmHg 61%
    22:00 +4°C° 0 mm 2 m/s 694 mmHg 60%
    23:00 +3°C° 0 mm 3 m/s 693 mmHg 59%

    26 Februarie, Duminică

    Timp Temperatura Precipitaţii Vânt Presiune Umiditate
    00:00 +3°C° 0 mm 3 m/s 693 mmHg 57%
    01:00 +3°C° 0 mm 3 m/s 693 mmHg 56%
    02:00 +3°C° 0 mm 3 m/s 692 mmHg 56%
    03:00 +2°C° 0 mm 3 m/s 692 mmHg 55%
    04:00 +2°C° 0 mm 3 m/s 692 mmHg 55%
    05:00 +2°C° 0 mm 3 m/s 692 mmHg 55%
    06:00 +2°C° 0 mm 3 m/s 692 mmHg 55%
    07:00 +4°C° 0 mm 3 m/s 692 mmHg 52%
    08:00 +7°C° 0 mm 2 m/s 693 mmHg 49%
    09:00 +9°C° 0 mm 2 m/s 693 mmHg 46%
    10:00 +10°C° 0 mm 2 m/s 693 mmHg 43%
    11:00 +13°C° 0 mm 2 m/s 693 mmHg 40%
    12:00 +14°C° 0 mm 2 m/s 693 mmHg 37%
    13:00 +14°C° 0 mm 2 m/s 693 mmHg 39%
    14:00 +14°C° 0 mm 2 m/s 693 mmHg 41%
    15:00 +13°C° 0 mm 3 m/s 693 mmHg 43%
    16:00 +12°C° 0 mm 2 m/s 693 mmHg 50%
    17:00 +9°C° 0 mm 2 m/s 694 mmHg 57%
    18:00 +8°C° 0 mm 1 m/s 694 mmHg 64%
    19:00 +6°C° 0 mm 2 m/s 695 mmHg 69%
    20:00 +5°C° 0 mm 2 m/s 695 mmHg 73%
    21:00 +3°C° 0 mm 3 m/s 696 mmHg 77%
    22:00 +3°C° 0 mm 2 m/s 696 mmHg 79%
    23:00 +2°C° 0 mm 2 m/s 696 mmHg 81%

    27 Februarie, Luni

    Timp Temperatura Precipitaţii Vânt Presiune Umiditate
    00:00 +2°C° 0 mm 2 m/s 697 mmHg 83%
    01:00 +1°C° 0 mm 2 m/s 697 mmHg 83%
    02:00 +1°C° 0 mm 2 m/s 697 mmHg 84%
    03:00 +1°C° 0 mm 2 m/s 697 mmHg 84%
    04:00 +1°C° 0 mm 2 m/s 697 mmHg 84%
    05:00 +1°C° 0 mm 2 m/s 697 mmHg 84%
    06:00 +1°C° 0 mm 1 m/s 698 mmHg 84%
    07:00 +2°C° 0 mm 1 m/s 698 mmHg 79%
    08:00 +4°C° 0 mm 1 m/s 698 mmHg 74%
    09:00 +5°C° 0 mm 1 m/s 698 mmHg 70%
    10:00 +5°C° 0 mm 2 m/s 698 mmHg 66%
    11:00 +6°C° 0 mm 2 m/s 698 mmHg 63%
    12:00 +7°C° 0 mm 2 m/s 697 mmHg 60%
    13:00 +7°C° 0 mm 2 m/s 696 mmHg 61%
    14:00 +8°C° 0 mm 2 m/s 696 mmHg 61%
    15:00 +8°C° 0 mm 2 m/s 695 mmHg 61%
    16:00 +7°C° 0 mm 1 m/s 695 mmHg 68%
    17:00 +6°C° 0 mm 1 m/s 695 mmHg 75%
    18:00 +4°C° 0 mm 1 m/s 694 mmHg 81%
    19:00 +4°C° 0 mm 1 m/s 694 mmHg 81%
    20:00 +4°C° 0 mm 1 m/s 694 mmHg 80%
    21:00 +4°C° 0 mm 1 m/s 694 mmHg 80%
    22:00 +4°C° 0 mm 1 m/s 694 mmHg 79%
    23:00 +4°C° 0 mm 1 m/s 694 mmHg 78%
    Arată mai mult